Accedi per prenotare

Caricamento...

Situazione Metar e Taf aeroporto Pisa - Effemeridi Aeroporto Lucca

[Source: ADDS]
METAR
LIRP 181845Z VRB01KT 8000 MIFG NSC 06/05 Q1032 TEMPO 5000 BR =
LIRP 181700Z 1818/1918 11006KT CAVOK TEMPO 1822/1906 5000 BR NSC
TAF
LIRP 181700Z 1818/1918 11006KT CAVOK TEMPO 1822/1906 5000 BR NSC =
SR / SS: 06:46 / 16:14 UTC (Effemeridi LIQL 2022-01-18)